N4HAC Weather Reports


time (UTC)temp
F
wind
direction
speed
knots
gust
knots
rain 1hr
in
rain 24hr
in
rain mn
in
humidity
%
barometer
mb
20260505041231 55 24 1.7 2.6 0.00 0.00 0.00 83 1005.6
20260505040729 56 12 2.6 2.6 0.00 0.00 0.00 82 1005.6
20260505040226 57 45 1.7 1.7 0.00 0.00 0.00 79 1005.6
20260505035723 57 351 0.0 2.6 0.00 0.00 0.00 79 1005.7
20260505035219 57 322 0.9 1.7 0.00 0.00 0.00 79 1005.6
20260505034716 57 24 1.7 1.7 0.00 0.00 0.00 79 1005.5
20260505034212 57 31 0.0 1.7 0.00 0.00 0.00 79 1005.6
20260505033708 58 327 0.0 1.7 0.00 0.00 0.00 76 1005.7
20260505033207 59 37 2.6 2.6 0.00 0.00 0.00 74 1005.7
20260505032705 59 37 0.9 1.7 0.00 0.00 0.00 74 1005.7
20260505032200 59 25 0.9 0.9 0.00 0.00 0.00 74 1005.8
20260505031658 58 313 0.0 1.7 0.00 0.00 0.00 75 1005.6
20260505031154 59 19 1.7 2.6 0.00 0.00 0.00 74 1006.0
20260505030651 60 27 0.0 1.7 0.00 0.00 0.00 71 1005.8
20260505030147 61 347 0.9 1.7 0.00 0.00 0.00 70 1005.6
20260505025643 61 82 0.9 1.7 0.00 0.00 0.00 68 1005.7
20260505025142 62 111 0.9 2.6 0.00 0.00 0.00 67 1005.7
20260505024639 62 151 2.6 7.0 0.00 0.00 0.00 67 1005.7
20260505024136 62 129 2.6 5.2 0.00 0.00 0.00 66 1005.8
20260505023633 63 141 4.3 5.2 0.00 0.00 0.00 65 1005.9
20260505023131 62 146 1.7 2.6 0.00 0.00 0.00 66 1005.8
20260505022628 62 44 0.0 1.7 0.00 0.00 0.00 65 1005.6
20260505022125 63 206 2.6 2.6 0.00 0.00 0.00 65 1005.6
20260505021621 63 173 1.7 3.5 0.00 0.00 0.00 64 1005.8
20260505021118 63 145 1.7 2.6 0.00 0.00 0.00 64 1005.7
20260505020614 64 135 1.7 2.6 0.00 0.00 0.00 63 1005.7
20260505020110 64 166 1.7 3.5 0.00 0.00 0.00 62 1005.8
20260505015607 64 248 1.7 3.5 0.00 0.00 0.00 62 1005.7
20260505015104 63 141 1.7 3.5 0.00 0.00 0.00 63 1005.7
20260505014601 64 174 1.7 2.6 0.00 0.00 0.00 63 1005.7
20260505014058 64 159 2.6 5.2 0.00 0.00 0.00 62 1005.5
20260505013555 64 136 6.1 7.0 0.00 0.00 0.00 61 1005.5
20260505013052 65 142 6.1 7.8 0.00 0.00 0.00 60 1005.3
20260505012550 64 123 4.3 6.1 0.00 0.00 0.00 60 1005.3
20260505012047 65 133 5.2 7.0 0.00 0.00 0.00 58 1005.1
20260505011543 66 119 3.5 4.3 0.00 0.00 0.00 57 1005.3
20260505011040 66 153 3.5 4.3 0.00 0.00 0.00 57 1005.1
20260505010535 66 145 1.7 1.7 0.00 0.00 0.00 57 1005.2
20260505010032 66 143 1.7 3.5 0.00 0.00 0.00 56 1005.2
20260505005528 66 151 0.0 1.7 0.00 0.00 0.00 55 1004.8
20260505005026 67 110 1.7 2.6 0.00 0.00 0.00 55 1004.7
20260505004523 67 131 1.7 2.6 0.00 0.00 0.00 54 1005.0
20260505004020 68 147 2.6 3.5 0.00 0.00 0.00 54 1004.9
20260505003517 68 134 3.5 5.2 0.00 0.00 0.00 53 1004.8
20260505003014 69 136 5.2 9.6 0.00 0.00 0.00 53 1004.8
20260505002509 69 166 7.0 9.6 0.00 0.00 0.00 51 1004.8
20260505002008 69 154 7.8 11.3 0.00 0.00 0.00 51 1004.9
20260505001505 69 152 8.7 12.2 0.00 0.00 0.00 50 1004.8
20260505001002 70 136 12.2 14.8 0.00 0.00 0.00 49 1004.8
20260505000500 70 150 5.2 9.6 0.00 0.00 0.00 49 1004.7
20260504235957 70 159 7.8 13.9 0.00 0.00 0.00 49 1004.6
20260504235454 70 161 9.6 11.3 0.00 0.00 0.00 49 1004.8
20260504234950 70 143 7.8 12.2 0.00 0.00 0.00 49 1004.5
20260504234448 70 145 8.7 14.8 0.00 0.00 0.00 49 1004.5
20260504233944 71 141 8.7 14.8 0.00 0.00 0.00 48 1004.3
20260504233440 71 150 10.4 12.2 0.00 0.00 0.00 48 1004.3
20260504232937 71 158 6.1 12.2 0.00 0.00 0.00 47 1004.6
20260504232434 71 141 12.2 12.2 0.00 0.00 0.00 47 1004.5
20260504231931 71 156 10.4 20.0 0.00 0.00 0.00 46 1004.2
20260504231427 72 154 9.6 23.5 0.00 0.00 0.00 45 1004.3
20260504230924 72 157 11.3 18.2 0.00 0.00 0.00 45 1004.4
20260504230421 72 136 13.9 22.6 0.00 0.00 0.00 43 1004.5
20260504225920 72 151 11.3 15.6 0.00 0.00 0.00 44 1004.3
20260504225416 72 145 9.6 16.5 0.00 0.00 0.00 44 1004.4
20260504224914 72 145 13.0 18.2 0.00 0.00 0.00 44 1004.2
20260504224410 72 138 15.6 15.6 0.00 0.00 0.00 44 1004.3
20260504223907 73 134 11.3 17.4 0.00 0.00 0.00 43 1004.1
20260504223402 73 137 7.8 13.9 0.00 0.00 0.00 42 1004.2
20260504222859 74 138 9.6 13.0 0.00 0.00 0.00 42 1004.0
20260504222355 74 146 7.8 17.4 0.00 0.00 0.00 41 1004.1
20260504221854 74 146 7.8 13.0 0.00 0.00 0.00 41 1004.0
20260504221350 75 146 7.8 13.9 0.00 0.00 0.00 40 1003.9
20260504220848 75 146 16.5 18.2 0.00 0.00 0.00 39 1003.9
20260504220344 76 141 12.2 13.0 0.00 0.00 0.00 40 1003.8
20260504215842 75 169 7.0 16.5 0.00 0.00 0.00 40 1003.9
20260504215338 76 136 9.6 10.4 0.00 0.00 0.00 40 1003.9
20260504214834 76 154 6.1 12.2 0.00 0.00 0.00 41 1004.0
20260504214331 76 142 11.3 15.6 0.00 0.00 0.00 38 1003.9
20260504213828 76 138 11.3 13.9 0.00 0.00 0.00 37 1003.8
20260504213323 76 137 10.4 13.0 0.00 0.00 0.00 37 1003.8
20260504212821 76 174 9.6 13.0 0.00 0.00 0.00 36 1003.6
20260504212317 76 167 12.2 17.4 0.00 0.00 0.00 37 1004.0
20260504211815 77 175 8.7 10.4 0.00 0.00 0.00 37 1003.5
20260504211311 76 162 7.8 13.0 0.00 0.00 0.00 38 1003.5
20260504210808 76 130 10.4 13.0 0.00 0.00 0.00 38 1003.8
20260504210306 76 141 12.2 15.6 0.00 0.00 0.00 38 1003.5
20260504205803 76 126 4.3 10.4 0.00 0.00 0.00 39 1003.6
20260504205300 76 124 3.5 13.0 0.00 0.00 0.00 39 1003.7
20260504204758 77 146 11.3 11.3 0.00 0.00 0.00 38 1003.6
20260504204256 77 54 2.6 13.9 0.00 0.00 0.00 38 1003.8
20260504203755 78 133 5.2 9.6 0.00 0.00 0.00 36 1003.8
20260504203252 77 147 2.6 10.4 0.00 0.00 0.00 39 1003.8
20260504202752 76 131 10.4 16.5 0.00 0.00 0.00 38 1004.0
20260504202250 76 141 10.4 16.5 0.00 0.00 0.00 39 1003.9
20260504201747 76 136 1.7 14.8 0.00 0.00 0.00 38 1003.8
20260504201244 76 139 9.6 11.3 0.00 0.00 0.00 39 1004.1
20260504200742 75 153 6.1 15.6 0.00 0.00 0.00 38 1004.0
20260504200237 77 148 1.7 7.0 0.00 0.00 0.00 37 1003.9
20260504195734 75 145 7.8 12.2 0.00 0.00 0.00 37 1004.2
20260504195230 75 146 7.0 18.2 0.00 0.00 0.00 38 1004.2
20260504194728 76 154 9.6 15.6 0.00 0.00 0.00 38 1004.5
20260504194223 76 138 10.4 10.4 0.00 0.00 0.00 35 1004.4
20260504193720 77 121 1.7 5.2 0.00 0.00 0.00 37 1004.5
20260504193218 76 133 7.8 13.9 0.00 0.00 0.00 36 1004.6
20260504192716 76 134 14.8 16.5 0.00 0.00 0.00 36 1004.6
20260504192213 76 139 10.4 13.0 0.00 0.00 0.00 37 1004.6
20260504191712 77 151 8.7 11.3 0.00 0.00 0.00 37 1004.8
20260504191209 74 139 7.0 14.8 0.00 0.00 0.00 40 1005.1
20260504190704 75 172 7.0 13.0 0.00 0.00 0.00 36 1005.2
20260504190200 74 146 10.4 14.8 0.00 0.00 0.00 38 1005.0
20260504185657 75 153 9.6 13.9 0.00 0.00 0.00 38 1005.0
20260504185153 74 179 7.8 16.5 0.00 0.00 0.00 35 1005.1
20260504184650 74 146 16.5 21.7 0.00 0.00 0.00 37 1005.2
20260504184145 73 170 3.5 13.0 0.00 0.00 0.00 39 1005.4
20260504183642 74 134 2.6 11.3 0.00 0.00 0.00 41 1005.4
20260504183139 73 154 13.0 21.7 0.00 0.00 0.00 39 1005.6
20260504182637 73 154 11.3 13.9 0.00 0.00 0.00 40 1005.4
20260504182134 73 145 2.6 6.1 0.00 0.00 0.00 40 1005.6
20260504181632 72 146 8.7 17.4 0.00 0.00 0.00 41 1005.7
20260504181129 73 40 3.5 15.6 0.00 0.00 0.00 40 1006.0
20260504180628 73 136 11.3 18.2 0.00 0.00 0.00 37 1005.8
20260504180126 72 162 5.2 13.0 0.00 0.00 0.00 41 1006.0
20260504175623 72 158 4.3 14.8 0.00 0.00 0.00 38 1006.0
20260504175120 72 128 1.7 15.6 0.00 0.00 0.00 44 1006.0
20260504174618 73 134 8.7 9.6 0.00 0.00 0.00 40 1006.2
20260504174114 73 125 5.2 8.7 0.00 0.00 0.00 39 1006.5
20260504173611 73 137 7.8 12.2 0.00 0.00 0.00 40 1006.5
20260504173109 73 35 3.5 7.8 0.00 0.00 0.00 39 1006.5
20260504172605 73 128 5.2 7.0 0.00 0.00 0.00 40 1006.5
20260504172102 73 117 3.5 9.6 0.00 0.00 0.00 40 1006.5
20260504171558 71 137 7.0 12.2 0.00 0.00 0.00 38 1006.6
20260504171055 72 133 4.3 7.8 0.00 0.00 0.00 40 1006.6
20260504170551 72 134 4.3 7.8 0.00 0.00 0.00 41 1006.6
20260504150935 66 151 12.2 12.2 0.00 0.00 0.00 43 1008.0
20260504150432 67 126 3.5 4.3 0.00 0.00 0.00 45 1008.2
20260504140858 64 128 6.1 8.7 0.00 0.00 0.00 46 1008.4
20260504140354 63 143 7.8 11.3 0.00 0.00 0.00 46 1008.6
20260504130319 57 30 3.5 3.5 0.00 0.00 0.00 66 1008.7
20260504120243 49 126 1.7 2.6 0.00 0.00 0.00 77 1009.7
20260504110710 42 80 0.9 1.7 0.00 0.00 0.00 94 1009.9
20260504110207 42 64 1.7 2.6 0.00 0.00 0.00 95 1009.7
20260504100131 41 137 1.7 2.6 0.00 0.00 0.00 93 1009.8
20260504081524 42 93 0.9 1.7 0.00 0.00 0.00 87 1009.9
20260504081019 42 136 1.7 1.7 0.00 0.00 0.00 87 1010.0
20260504080516 42 104 1.7 2.6 0.00 0.00 0.00 87 1009.9
20260504050335 41 42 1.7 1.7 0.00 0.00 0.00 84 1010.4
20260504045832 41 66 0.0 0.9 0.00 0.00 0.00 84 1010.3
20260504045332 41 141 0.0 0.9 0.00 0.00 0.00 84 1010.5
20260504044829 41 235 0.0 0.9 0.00 0.00 0.00 83 1010.5
20260504044326 41 18 0.0 1.7 0.00 0.00 0.00 83 1010.4
20260504043824 41 11 0.0 1.7 0.00 0.00 0.00 83 1010.4
20260504043320 40 284 1.7 1.7 0.00 0.00 0.00 86 1010.4
20260504042818 40 354 0.0 1.7 0.00 0.00 0.00 86 1010.3
20260504042314 40 1 1.7 1.7 0.00 0.00 0.00 86 1010.3
20260504041810 40 320 0.0 1.7 0.00 0.00 0.00 87 1010.5